Time,TemperatureF,DewpointF,PressureIn,WindDirection,WindDirectionDegrees,WindSpeedMPH,WindSpeedGustMPH,Humidity,HourlyPrecipIn,Conditions,Clouds,dailyrainin,SoftwareType,DateUTC
2013-03-24 00:02:00,29.1,21.5,29.81,NE,34,0.0,0.0,73,0.00,,CLR,0.00,VWS V14.01,2013-03-24 04:02:00,
2013-03-24 00:07:00,29.1,21.5,29.81,NE,56,0.0,0.0,73,0.00,,CLR,0.00,VWS V14.01,2013-03-24 04:07:00,
2013-03-24 00:12:00,29.1,21.5,29.81,ENE,58,0.0,0.0,73,0.00,,CLR,0.00,VWS V14.01,2013-03-24 04:12:00,
2013-03-24 00:22:00,29.0,21.8,29.81,ENE,59,0.0,0.0,74,0.00,,CLR,0.00,VWS V14.01,2013-03-24 04:22:00,
2013-03-24 00:27:00,29.0,21.8,29.81,ENE,58,0.0,0.0,74,0.00,,CLR,0.00,VWS V14.01,2013-03-24 04:27:00,
2013-03-24 00:32:00,29.0,21.8,29.81,NE,52,0.0,0.0,74,0.00,,CLR,0.00,VWS V14.01,2013-03-24 04:32:00,
2013-03-24 00:37:00,28.8,21.6,29.81,ENE,61,0.0,0.0,74,0.00,,CLR,0.00,VWS V14.01,2013-03-24 04:37:00,
2013-03-24 00:42:00,28.8,21.9,29.81,NNE,32,0.0,0.0,75,0.00,,CLR,0.00,VWS V14.01,2013-03-24 04:42:00,
2013-03-24 00:47:00,28.8,21.9,29.82,NE,54,0.0,0.0,75,0.00,,CLR,0.00,VWS V14.01,2013-03-24 04:47:00,
2013-03-24 00:52:00,28.7,21.8,29.82,ENE,64,0.0,0.0,75,0.00,,CLR,0.00,VWS V14.01,2013-03-24 04:52:00,
2013-03-24 01:02:00,28.5,21.6,29.82,NE,41,0.0,0.0,75,0.00,,CLR,0.00,VWS V14.01,2013-03-24 05:02:00,
2013-03-24 01:12:00,28.4,21.8,29.82,NE,55,0.0,0.0,76,0.00,,CLR,0.00,VWS V14.01,2013-03-24 05:12:00,
2013-03-24 01:22:00,28.2,21.9,29.83,NE,56,0.0,0.0,77,0.00,,CLR,0.00,VWS V14.01,2013-03-24 05:22:00,
2013-03-24 01:27:00,28.2,21.9,29.83,NE,47,0.0,0.0,77,0.00,,CLR,0.00,VWS V14.01,2013-03-24 05:27:00,
2013-03-24 01:32:00,28.1,21.8,29.81,NE,52,0.0,0.0,77,0.00,,CLR,0.00,VWS V14.01,2013-03-24 05:32:00,
2013-03-24 01:37:00,28.1,21.8,29.81,NE,47,0.0,0.0,77,0.00,,CLR,0.00,VWS V14.01,2013-03-24 05:37:00,
2013-03-24 01:47:00,27.9,21.9,29.81,NE,40,0.0,0.0,78,0.00,,CLR,0.00,VWS V14.01,2013-03-24 05:47:00,
2013-03-24 01:52:00,27.9,21.9,29.81,NE,55,0.0,0.0,78,0.00,,CLR,0.00,VWS V14.01,2013-03-24 05:52:00,
2013-03-24 02:02:00,27.9,22.2,29.80,ENE,61,0.0,0.0,79,0.00,,CLR,0.00,VWS V14.01,2013-03-24 06:02:00,
2013-03-24 02:12:00,27.9,22.2,29.80,NE,56,0.0,0.0,79,0.00,,CLR,0.00,VWS V14.01,2013-03-24 06:12:00,
2013-03-24 02:22:00,28.1,22.4,29.81,ENE,65,0.0,0.0,79,0.00,,CLR,0.00,VWS V14.01,2013-03-24 06:22:00,
2013-03-24 02:27:00,28.1,22.4,29.81,NE,56,0.0,0.0,79,0.00,,CLR,0.00,VWS V14.01,2013-03-24 06:27:00,
2013-03-24 02:32:00,28.1,22.4,29.81,ENE,64,0.0,0.0,79,0.00,,CLR,0.00,VWS V14.01,2013-03-24 06:32:00,
2013-03-24 02:42:00,28.1,22.4,29.81,NE,54,0.0,0.0,79,0.00,,CLR,0.00,VWS V14.01,2013-03-24 06:42:00,
2013-03-24 02:52:00,28.1,22.4,29.80,NE,49,0.0,0.0,79,0.00,,CLR,0.00,VWS V14.01,2013-03-24 06:52:00,
2013-03-24 02:57:00,28.1,22.4,29.80,NE,54,0.0,0.0,79,0.00,,CLR,0.00,VWS V14.01,2013-03-24 06:57:00,
2013-03-24 03:02:00,28.1,22.4,29.81,NE,51,0.0,0.0,79,0.00,,CLR,0.00,VWS V14.01,2013-03-24 07:02:00,
2013-03-24 03:07:00,28.1,22.4,29.81,NE,44,0.0,0.0,79,0.00,,CLR,0.00,VWS V14.01,2013-03-24 07:07:00,
2013-03-24 03:17:00,28.1,22.4,29.81,NE,45,0.0,0.0,79,0.00,,CLR,0.00,VWS V14.01,2013-03-24 07:17:00,
2013-03-24 03:27:00,27.9,22.2,29.81,NE,56,0.0,0.0,79,0.00,,CLR,0.00,VWS V14.01,2013-03-24 07:27:00,
2013-03-24 03:37:00,27.9,22.5,29.81,NE,54,0.0,0.0,80,0.00,,CLR,0.00,VWS V14.01,2013-03-24 07:37:00,
2013-03-24 03:42:00,27.9,22.5,29.81,NE,55,0.0,0.0,80,0.00,,CLR,0.00,VWS V14.01,2013-03-24 07:42:00,
2013-03-24 03:52:00,27.9,22.5,29.80,NE,52,0.0,0.0,80,0.00,,CLR,0.00,VWS V14.01,2013-03-24 07:52:00,
2013-03-24 04:02:00,27.8,22.4,29.79,NE,48,0.0,0.0,80,0.00,,CLR,0.00,VWS V14.01,2013-03-24 08:02:00,
2013-03-24 04:12:00,27.9,22.5,29.79,ENE,64,0.0,0.0,80,0.00,,CLR,0.00,VWS V14.01,2013-03-24 08:12:00,
2013-03-24 04:17:00,27.9,22.5,29.79,NE,55,0.0,0.0,80,0.00,,CLR,0.00,VWS V14.01,2013-03-24 08:17:00,
2013-03-24 04:27:00,27.9,22.5,29.79,ENE,61,0.0,0.0,80,0.00,,CLR,0.00,VWS V14.01,2013-03-24 08:27:00,
2013-03-24 04:32:00,27.9,22.5,29.78,ENE,59,0.0,0.0,80,0.00,,CLR,0.00,VWS V14.01,2013-03-24 08:32:00,
2013-03-24 04:42:00,28.1,22.4,29.78,ENE,58,0.0,0.0,79,0.00,,CLR,0.00,VWS V14.01,2013-03-24 08:42:00,
2013-03-24 04:47:00,28.2,22.5,29.77,ENE,65,0.0,0.0,79,0.00,,CLR,0.00,VWS V14.01,2013-03-24 08:47:00,
2013-03-24 04:57:00,28.4,22.7,29.77,ENE,66,0.0,0.0,79,0.00,,CLR,0.00,VWS V14.01,2013-03-24 08:57:00,
2013-03-24 05:02:00,28.4,22.4,29.77,NE,55,0.0,0.0,78,0.00,,CLR,0.00,VWS V14.01,2013-03-24 09:02:00,
2013-03-24 05:12:00,28.5,22.5,29.77,ENE,64,0.0,0.0,78,0.00,,CLR,0.00,VWS V14.01,2013-03-24 09:12:00,
2013-03-24 05:17:00,28.5,22.5,29.76,NE,52,0.0,0.0,78,0.00,,CLR,0.00,VWS V14.01,2013-03-24 09:17:00,
2013-03-24 05:22:00,28.7,22.4,29.76,ENE,61,0.0,0.0,77,0.00,,CLR,0.00,VWS V14.01,2013-03-24 09:22:00,
2013-03-24 05:27:00,28.7,22.4,29.76,ENE,71,0.0,0.0,77,0.00,,CLR,0.00,VWS V14.01,2013-03-24 09:27:00,
2013-03-24 05:37:00,28.8,22.5,29.76,ENE,73,0.0,0.0,77,0.00,,CLR,0.00,VWS V14.01,2013-03-24 09:37:00,
2013-03-24 05:42:00,28.8,22.2,29.76,ENE,64,0.0,0.0,76,0.00,,CLR,0.00,VWS V14.01,2013-03-24 09:42:00,
2013-03-24 05:47:00,28.8,22.2,29.75,ENE,76,0.0,0.0,76,0.00,,CLR,0.00,VWS V14.01,2013-03-24 09:47:00,
2013-03-24 05:57:00,28.8,22.2,29.75,ENE,68,0.0,0.0,76,0.00,,CLR,0.00,VWS V14.01,2013-03-24 09:57:00,
2013-03-24 06:02:00,29.0,22.4,29.75,ENE,66,0.0,0.0,76,0.00,,CLR,0.00,VWS V14.01,2013-03-24 10:02:00,
2013-03-24 06:12:00,29.0,22.4,29.75,ENE,64,0.0,0.0,76,0.00,,CLR,0.00,VWS V14.01,2013-03-24 10:12:00,
2013-03-24 06:17:00,29.0,22.4,29.74,ENE,65,0.0,0.0,76,0.00,,CLR,0.00,VWS V14.01,2013-03-24 10:17:00,
2013-03-24 06:22:00,29.0,22.4,29.74,ENE,64,0.0,0.0,76,0.00,,CLR,0.00,VWS V14.01,2013-03-24 10:22:00,
2013-03-24 06:27:00,29.0,22.4,29.74,ENE,72,0.0,0.0,76,0.00,,CLR,0.00,VWS V14.01,2013-03-24 10:27:00,
2013-03-24 06:32:00,29.1,22.5,29.74,ENE,76,0.0,0.0,76,0.00,,CLR,0.00,VWS V14.01,2013-03-24 10:32:00,
2013-03-24 06:42:00,29.3,22.7,29.74,ENE,76,0.0,0.0,76,0.00,,CLR,0.00,VWS V14.01,2013-03-24 10:42:00,
2013-03-24 06:47:00,29.4,22.5,29.73,ENE,71,0.0,0.0,75,0.00,,CLR,0.00,VWS V14.01,2013-03-24 10:47:00,
2013-03-24 06:52:00,29.7,22.8,29.73,East,82,0.0,0.0,75,0.00,,CLR,0.00,VWS V14.01,2013-03-24 10:52:00,
2013-03-24 07:02:00,29.8,22.2,29.73,ENE,68,0.0,0.0,73,0.00,,CLR,0.00,VWS V14.01,2013-03-24 11:02:00,
2013-03-24 07:07:00,30.0,22.4,29.73,ENE,72,0.0,0.0,73,0.00,,CLR,0.00,VWS V14.01,2013-03-24 11:07:00,
2013-03-24 07:17:00,30.0,22.1,29.73,ENE,68,0.0,0.0,72,0.00,,CLR,0.00,VWS V14.01,2013-03-24 11:17:00,
2013-03-24 07:22:00,30.0,22.1,29.73,ENE,64,0.0,0.0,72,0.00,,CLR,0.00,VWS V14.01,2013-03-24 11:22:00,
2013-03-24 07:32:00,30.0,22.1,29.72,ENE,73,0.0,0.0,72,0.00,,CLR,0.00,VWS V14.01,2013-03-24 11:32:00,
2013-03-24 07:42:00,30.0,22.1,29.72,East,97,0.0,0.0,72,0.00,,SCT120,0.00,VWS V14.01,2013-03-24 11:42:00,
2013-03-24 07:47:00,30.0,22.1,29.73,ENE,72,0.0,0.0,72,0.00,,SCT120,0.00,VWS V14.01,2013-03-24 11:47:00,
2013-03-24 07:57:00,30.0,22.1,29.73,East,85,0.0,0.0,72,0.00,,SCT120,0.00,VWS V14.01,2013-03-24 11:57:00,
2013-03-24 08:07:00,30.0,22.1,29.73,ENE,71,0.0,0.0,72,0.00,,SCT120,0.00,VWS V14.01,2013-03-24 12:07:00,
2013-03-24 08:12:00,30.0,22.1,29.73,ENE,75,0.0,0.0,72,0.00,,SCT120,0.00,VWS V14.01,2013-03-24 12:12:00,
2013-03-24 08:17:00,30.0,22.1,29.72,ENE,72,0.0,0.0,72,0.00,,SCT120,0.00,VWS V14.01,2013-03-24 12:17:00,
2013-03-24 08:22:00,30.0,22.1,29.72,ENE,68,0.0,0.0,72,0.00,,SCT120,0.00,VWS V14.01,2013-03-24 12:22:00,
2013-03-24 08:27:00,30.0,22.1,29.72,East,92,0.0,0.0,72,0.00,,SCT120,0.00,VWS V14.01,2013-03-24 12:27:00,
2013-03-24 08:32:00,30.0,22.4,29.72,ENE,76,0.0,0.0,73,0.00,,SCT120,0.00,VWS V14.01,2013-03-24 12:32:00,
2013-03-24 08:42:00,30.0,22.4,29.72,ENE,72,0.0,0.0,73,0.00,,SCT120,0.00,VWS V14.01,2013-03-24 12:42:00,
2013-03-24 08:52:00,30.0,22.4,29.71,ENE,71,0.0,0.0,73,0.00,,SCT120,0.00,VWS V14.01,2013-03-24 12:52:00,
2013-03-24 08:57:00,30.0,22.7,29.71,ENE,59,0.0,0.0,74,0.00,,SCT120,0.00,VWS V14.01,2013-03-24 12:57:00,
2013-03-24 09:02:00,29.7,22.8,29.70,ENE,69,0.0,0.0,75,0.00,,SCT120,0.00,VWS V14.01,2013-03-24 13:02:00,
2013-03-24 09:12:00,29.0,23.3,29.70,East,80,0.0,0.0,79,0.00,,SCT120,0.00,VWS V14.01,2013-03-24 13:12:00,
2013-03-24 09:22:00,28.8,24.0,29.69,ENE,66,0.0,0.0,82,0.00,,SCT120,0.00,VWS V14.01,2013-03-24 13:22:00,
2013-03-24 09:27:00,29.0,24.2,29.69,East,79,0.0,0.0,82,0.00,,SCT120,0.00,VWS V14.01,2013-03-24 13:27:00,
2013-03-24 09:32:00,29.0,24.2,29.67,East,79,0.0,0.0,82,0.00,,SCT120,0.00,VWS V14.01,2013-03-24 13:32:00,
2013-03-24 09:42:00,29.1,24.6,29.67,East,82,0.0,0.0,83,0.00,,OVC080,0.00,VWS V14.01,2013-03-24 13:42:00,
2013-03-24 09:52:00,29.0,24.8,29.67,ENE,68,0.0,0.0,84,0.00,,OVC080,0.00,VWS V14.01,2013-03-24 13:52:00,
2013-03-24 09:57:00,29.0,24.8,29.67,ENE,66,0.0,0.0,84,0.00,,OVC080,0.00,VWS V14.01,2013-03-24 13:57:00,
2013-03-24 10:02:00,29.3,25.1,29.68,ENE,68,0.0,0.0,84,0.00,,OVC080,0.00,VWS V14.01,2013-03-24 14:02:00,
2013-03-24 10:12:00,29.5,25.0,29.68,East,82,0.0,0.0,83,0.00,,OVC080,0.00,VWS V14.01,2013-03-24 14:12:00,
2013-03-24 10:22:00,29.7,24.9,29.67,ENE,78,0.0,0.0,82,0.00,,OVC080,0.00,VWS V14.01,2013-03-24 14:22:00,
2013-03-24 10:37:00,30.0,24.6,29.65,ENE,76,0.0,0.0,80,0.00,,OVC080,0.00,VWS V14.01,2013-03-24 14:37:00,
2013-03-24 10:47:00,30.1,25.0,29.64,ENE,71,0.0,0.0,81,0.00,,OVC080,0.00,VWS V14.01,2013-03-24 14:47:00,
2013-03-24 10:57:00,30.1,24.7,29.64,ENE,69,0.0,0.0,80,0.00,,OVC080,0.00,VWS V14.01,2013-03-24 14:57:00,
2013-03-24 11:02:00,30.3,24.9,29.62,ENE,71,0.0,0.0,80,0.00,,OVC080,0.00,VWS V14.01,2013-03-24 15:02:00,
2013-03-24 11:12:00,30.6,24.9,29.62,ENE,69,0.0,0.0,79,0.00,,OVC080,0.00,VWS V14.01,2013-03-24 15:12:00,
2013-03-24 11:17:00,30.7,24.7,29.61,ENE,68,0.0,0.0,78,0.00,,OVC080,0.00,VWS V14.01,2013-03-24 15:17:00,
2013-03-24 11:22:00,30.7,24.7,29.61,ENE,66,0.0,0.0,78,0.00,,OVC080,0.00,VWS V14.01,2013-03-24 15:22:00,
2013-03-24 11:27:00,30.7,24.4,29.61,ENE,61,0.0,0.0,77,0.00,,OVC080,0.00,VWS V14.01,2013-03-24 15:27:00,
2013-03-24 11:32:00,30.9,24.5,29.59,ENE,69,0.0,0.0,77,0.00,,OVC080,0.00,VWS V14.01,2013-03-24 15:32:00,
2013-03-24 11:37:00,31.0,24.3,29.59,ENE,78,0.0,0.0,76,0.00,,OVC080,0.00,VWS V14.01,2013-03-24 15:37:00,
2013-03-24 11:47:00,31.2,24.2,29.59,ENE,73,0.0,0.0,75,0.00,,OVC090,0.00,VWS V14.01,2013-03-24 15:47:00,
2013-03-24 11:52:00,31.2,23.9,29.59,ENE,71,0.0,0.0,74,0.00,,OVC090,0.00,VWS V14.01,2013-03-24 15:52:00,
2013-03-24 11:57:00,31.3,24.0,29.59,ENE,64,0.0,0.0,74,0.00,,OVC090,0.00,VWS V14.01,2013-03-24 15:57:00,
2013-03-24 12:02:00,31.3,24.0,29.59,ENE,62,0.0,0.0,74,0.00,,OVC090,0.00,VWS V14.01,2013-03-24 16:02:00,
2013-03-24 12:12:00,31.6,24.3,29.59,ENE,68,0.0,0.0,74,0.00,,OVC090,0.00,VWS V14.01,2013-03-24 16:12:00,
2013-03-24 12:17:00,31.8,24.5,29.59,East,80,0.0,0.0,74,0.00,,OVC090,0.00,VWS V14.01,2013-03-24 16:17:00,
2013-03-24 12:22:00,31.8,24.1,29.59,ENE,72,0.0,0.0,73,0.00,,OVC090,0.00,VWS V14.01,2013-03-24 16:22:00,
2013-03-24 12:27:00,31.9,23.9,29.59,ENE,71,0.0,0.0,72,0.00,,OVC090,0.00,VWS V14.01,2013-03-24 16:27:00,
2013-03-24 12:32:00,32.1,24.1,29.59,ENE,58,0.0,0.0,72,0.00,,OVC090,0.00,VWS V14.01,2013-03-24 16:32:00,
2013-03-24 12:42:00,32.4,24.4,29.59,ENE,72,0.0,0.0,72,0.00,,OVC090,0.00,VWS V14.01,2013-03-24 16:42:00,
2013-03-24 12:47:00,32.4,23.7,29.60,ENE,73,0.0,0.0,70,0.00,,OVC090,0.00,VWS V14.01,2013-03-24 16:47:00,
2013-03-24 12:52:00,32.5,23.8,29.60,ENE,68,0.0,0.0,70,0.00,,OVC090,0.00,VWS V14.01,2013-03-24 16:52:00,
2013-03-24 12:57:00,32.5,23.8,29.60,ENE,73,0.0,0.0,70,0.00,,OVC090,0.00,VWS V14.01,2013-03-24 16:57:00,
2013-03-24 13:02:00,32.7,24.0,29.59,ENE,59,0.0,0.0,70,0.00,,OVC090,0.00,VWS V14.01,2013-03-24 17:02:00,
2013-03-24 13:07:00,32.7,24.0,29.59,ENE,71,0.0,0.0,70,0.00,,OVC090,0.00,VWS V14.01,2013-03-24 17:07:00,
2013-03-24 13:17:00,32.7,24.4,29.58,East,80,0.0,0.0,71,0.00,,OVC090,0.00,VWS V14.01,2013-03-24 17:17:00,
2013-03-24 13:22:00,32.8,24.8,29.58,ENE,75,0.0,0.0,72,0.00,,OVC090,0.00,VWS V14.01,2013-03-24 17:22:00,
2013-03-24 13:27:00,32.8,24.8,29.58,East,79,0.0,0.0,72,0.00,,OVC090,0.00,VWS V14.01,2013-03-24 17:27:00,
2013-03-24 13:32:00,32.8,24.8,29.56,ENE,75,0.0,0.0,72,0.00,,OVC090,0.00,VWS V14.01,2013-03-24 17:32:00,
2013-03-24 13:37:00,32.7,25.0,29.56,ENE,59,0.0,0.0,73,0.00,,OVC090,0.00,VWS V14.01,2013-03-24 17:37:00,
2013-03-24 13:42:00,32.9,25.2,29.56,ENE,75,0.0,0.0,73,0.00,,OVC080,0.00,VWS V14.01,2013-03-24 17:42:00,
2013-03-24 13:47:00,33.1,25.1,29.56,East,79,0.0,0.0,72,0.00,,OVC080,0.00,VWS V14.01,2013-03-24 17:47:00,
2013-03-24 13:52:00,33.2,25.2,29.56,ENE,59,0.0,0.0,72,0.00,,OVC080,0.00,VWS V14.01,2013-03-24 17:52:00,
2013-03-24 13:57:00,33.4,25.4,29.56,ENE,66,0.0,0.0,72,0.00,,OVC080,0.00,VWS V14.01,2013-03-24 17:57:00,
2013-03-24 14:02:00,33.7,25.0,29.54,NE,45,0.0,0.0,70,0.00,,OVC080,0.00,VWS V14.01,2013-03-24 18:02:00,
2013-03-24 14:12:00,34.1,24.3,29.54,ENE,69,0.0,0.0,67,0.00,,OVC080,0.00,VWS V14.01,2013-03-24 18:12:00,
2013-03-24 14:17:00,34.3,24.1,29.53,ENE,75,0.0,0.0,66,0.00,,OVC080,0.00,VWS V14.01,2013-03-24 18:17:00,
2013-03-24 14:22:00,34.6,24.1,29.53,East,96,0.0,0.0,65,0.00,,OVC080,0.00,VWS V14.01,2013-03-24 18:22:00,
2013-03-24 14:27:00,34.6,24.1,29.53,NE,45,0.0,0.0,65,0.00,,OVC080,0.00,VWS V14.01,2013-03-24 18:27:00,
2013-03-24 14:37:00,34.9,24.3,29.51,ENE,73,0.0,0.0,65,0.00,,OVC080,0.00,VWS V14.01,2013-03-24 18:37:00,
2013-03-24 14:47:00,34.4,23.9,29.50,ENE,58,0.0,0.0,65,0.00,,OVC075,0.00,VWS V14.01,2013-03-24 18:47:00,
2013-03-24 14:57:00,34.9,24.3,29.50,ENE,72,0.0,0.0,65,0.00,,OVC075,0.00,VWS V14.01,2013-03-24 18:57:00,
2013-03-24 15:02:00,35.3,24.7,29.48,East,90,0.0,0.0,65,0.00,,OVC075,0.00,VWS V14.01,2013-03-24 19:02:00,
2013-03-24 15:12:00,35.2,24.6,29.48,East,79,0.0,0.0,65,0.00,,OVC075,0.00,VWS V14.01,2013-03-24 19:12:00,
2013-03-24 15:17:00,35.5,24.5,29.46,ENE,69,0.0,0.0,64,0.00,,OVC075,0.00,VWS V14.01,2013-03-24 19:17:00,
2013-03-24 15:22:00,35.6,24.3,29.46,ENE,64,0.0,0.0,63,0.00,,OVC075,0.00,VWS V14.01,2013-03-24 19:22:00,
2013-03-24 15:27:00,35.9,24.9,29.46,East,80,0.0,0.0,64,0.00,,OVC075,0.00,VWS V14.01,2013-03-24 19:27:00,
2013-03-24 15:32:00,35.8,24.1,29.44,East,90,0.0,0.0,62,0.00,,OVC075,0.00,VWS V14.01,2013-03-24 19:32:00,
2013-03-24 15:37:00,35.5,23.8,29.44,ENE,65,0.0,0.0,62,0.00,,OVC075,0.00,VWS V14.01,2013-03-24 19:37:00,
2013-03-24 15:42:00,35.2,23.5,29.44,ENE,78,0.0,0.0,62,0.00,,OVC075,0.00,VWS V14.01,2013-03-24 19:42:00,
2013-03-24 15:52:00,35.5,23.4,29.44,ENE,65,0.0,0.0,61,0.00,,OVC075,0.00,VWS V14.01,2013-03-24 19:52:00,
2013-03-24 15:57:00,35.5,23.0,29.44,ENE,71,0.0,0.0,60,0.00,,OVC075,0.00,VWS V14.01,2013-03-24 19:57:00,
2013-03-24 16:02:00,35.3,22.8,29.44,ENE,59,0.0,0.0,60,0.00,,OVC075,0.00,VWS V14.01,2013-03-24 20:02:00,
2013-03-24 16:12:00,35.3,22.0,29.44,ENE,72,0.0,0.0,58,0.00,,OVC075,0.00,VWS V14.01,2013-03-24 20:12:00,
2013-03-24 16:17:00,35.2,21.9,29.43,NE,52,0.0,0.0,58,0.00,,OVC075,0.00,VWS V14.01,2013-03-24 20:17:00,
2013-03-24 16:27:00,35.0,21.7,29.43,ENE,62,0.0,0.0,58,0.00,,OVC075,0.00,VWS V14.01,2013-03-24 20:27:00,
2013-03-24 16:32:00,34.9,21.6,29.43,East,83,0.0,0.0,58,0.00,,OVC075,0.00,VWS V14.01,2013-03-24 20:32:00,
2013-03-24 16:42:00,34.9,21.6,29.43,ENE,65,0.0,0.0,58,0.00,,OVC075,0.00,VWS V14.01,2013-03-24 20:42:00,
2013-03-24 16:52:00,35.0,21.7,29.42,NE,37,0.0,0.0,58,0.00,,OVC075,0.00,VWS V14.01,2013-03-24 20:52:00,
2013-03-24 16:57:00,34.9,21.6,29.42,ENE,71,0.0,0.0,58,0.00,,OVC075,0.00,VWS V14.01,2013-03-24 20:57:00,
2013-03-24 17:02:00,34.9,20.4,29.41,ENE,66,0.0,0.0,55,0.00,,OVC075,0.00,VWS V14.01,2013-03-24 21:02:00,
2013-03-24 17:07:00,34.7,20.6,29.41,NE,56,0.0,0.0,56,0.00,,OVC075,0.00,VWS V14.01,2013-03-24 21:07:00,
2013-03-24 17:17:00,34.9,20.4,29.39,ENE,65,0.0,0.0,55,0.00,,OVC075,0.00,VWS V14.01,2013-03-24 21:17:00,
2013-03-24 17:22:00,34.9,20.4,29.39,NE,44,0.0,0.0,55,0.00,,OVC075,0.00,VWS V14.01,2013-03-24 21:22:00,
2013-03-24 17:27:00,34.7,20.2,29.39,East,80,0.0,0.0,55,0.00,,OVC075,0.00,VWS V14.01,2013-03-24 21:27:00,
2013-03-24 17:37:00,34.6,20.5,29.40,ENE,69,0.0,0.0,56,0.00,,OVC075,0.00,VWS V14.01,2013-03-24 21:37:00,
2013-03-24 17:42:00,34.6,20.5,29.40,ENE,59,0.0,0.0,56,0.00,,OVC075,0.00,VWS V14.01,2013-03-24 21:42:00,
2013-03-24 17:47:00,34.4,20.8,29.40,ENE,72,0.0,0.0,57,0.00,,OVC075,0.00,VWS V14.01,2013-03-24 21:47:00,
2013-03-24 17:52:00,34.3,20.7,29.40,ENE,58,0.0,0.0,57,0.00,,OVC075,0.00,VWS V14.01,2013-03-24 21:52:00,
2013-03-24 17:57:00,34.3,21.1,29.40,East,99,0.0,0.0,58,0.00,,OVC075,0.00,VWS V14.01,2013-03-24 21:57:00,
2013-03-24 18:02:00,34.3,21.5,29.40,ENE,72,0.0,0.0,59,0.00,,OVC075,0.00,VWS V14.01,2013-03-24 22:02:00,
2013-03-24 18:12:00,34.1,21.7,29.40,ENE,68,0.0,0.0,60,0.00,,OVC075,0.00,VWS V14.01,2013-03-24 22:12:00,
2013-03-24 18:17:00,34.1,22.1,29.39,ENE,75,0.0,0.0,61,0.00,,OVC075,0.00,VWS V14.01,2013-03-24 22:17:00,
2013-03-24 18:22:00,34.0,22.0,29.39,ENE,65,0.0,0.0,61,0.00,,OVC075,0.00,VWS V14.01,2013-03-24 22:22:00,
2013-03-24 18:27:00,34.1,22.1,29.39,ENE,58,0.0,0.0,61,0.00,,OVC075,0.00,VWS V14.01,2013-03-24 22:27:00,
2013-03-24 18:37:00,34.1,22.1,29.41,NE,54,0.0,0.0,61,0.00,,OVC075,0.00,VWS V14.01,2013-03-24 22:37:00,
2013-03-24 18:47:00,34.3,22.3,29.42,ENE,58,0.0,0.0,61,0.00,,OVC035,0.00,VWS V14.01,2013-03-24 22:47:00,
2013-03-24 18:52:00,34.3,22.6,29.42,NE,54,0.0,0.0,62,0.00,,OVC035,0.00,VWS V14.01,2013-03-24 22:52:00,
2013-03-24 18:57:00,34.1,22.5,29.42,NE,55,0.0,0.0,62,0.00,,OVC035,0.00,VWS V14.01,2013-03-24 22:57:00,
2013-03-24 19:02:00,34.0,22.4,29.42,NE,54,0.0,0.0,62,0.00,,OVC035,0.00,VWS V14.01,2013-03-24 23:02:00,
2013-03-24 19:07:00,34.0,22.7,29.42,ENE,59,0.0,0.0,63,0.00,,OVC035,0.00,VWS V14.01,2013-03-24 23:07:00,
2013-03-24 19:12:00,33.8,22.5,29.42,ENE,66,0.0,0.0,63,0.00,,OVC035,0.00,VWS V14.01,2013-03-24 23:12:00,
2013-03-24 19:22:00,33.7,22.8,29.43,NE,41,0.0,0.0,64,0.00,,OVC035,0.00,VWS V14.01,2013-03-24 23:22:00,
2013-03-24 19:27:00,33.5,23.0,29.43,ENE,64,0.0,0.0,65,0.00,,OVC035,0.00,VWS V14.01,2013-03-24 23:27:00,
2013-03-24 19:32:00,33.2,23.8,29.43,ENE,71,0.0,0.0,68,0.00,,OVC035,0.00,VWS V14.01,2013-03-24 23:32:00,
2013-03-24 19:37:00,32.7,24.0,29.43,ENE,69,0.0,0.0,70,0.00,,OVC035,0.00,VWS V14.01,2013-03-24 23:37:00,
2013-03-24 19:42:00,32.4,24.4,29.43,NE,55,0.0,0.0,72,0.00,,OVC075,0.00,VWS V14.01,2013-03-24 23:42:00,
2013-03-24 19:47:00,32.1,24.8,29.42,ENE,68,0.0,0.0,74,0.00,,OVC075,0.00,VWS V14.01,2013-03-24 23:47:00,
2013-03-24 19:57:00,31.8,24.8,29.42,NE,47,0.0,0.0,75,0.00,,OVC075,0.00,VWS V14.01,2013-03-24 23:57:00,
2013-03-24 20:07:00,31.6,25.2,29.43,ENE,65,0.0,0.0,77,0.00,,OVC075,0.00,VWS V14.01,2013-03-25 00:07:00,
2013-03-24 20:12:00,31.5,25.4,29.43,NE,52,0.0,0.0,78,0.00,,OVC075,0.00,VWS V14.01,2013-03-25 00:12:00,
2013-03-24 20:22:00,31.5,25.4,29.42,NE,54,0.0,0.0,78,0.00,,OVC075,0.00,VWS V14.01,2013-03-25 00:22:00,
2013-03-24 20:27:00,31.6,25.9,29.42,NE,52,0.0,0.0,79,0.00,,OVC075,0.00,VWS V14.01,2013-03-25 00:27:00,
2013-03-24 20:37:00,31.5,25.8,29.42,ENE,59,0.0,0.0,79,0.00,,OVC075,0.00,VWS V14.01,2013-03-25 00:37:00,
2013-03-24 20:42:00,31.3,25.9,29.42,NE,48,0.0,0.0,80,0.00,,OVC031,0.00,VWS V14.01,2013-03-25 00:42:00,
2013-03-24 20:47:00,31.0,26.2,29.42,NE,51,0.0,0.0,82,0.00,,OVC031,0.00,VWS V14.01,2013-03-25 00:47:00,
2013-03-24 20:52:00,30.9,26.4,29.42,NE,37,0.0,0.0,83,0.00,,OVC031,0.00,VWS V14.01,2013-03-25 00:52:00,
2013-03-24 20:57:00,30.7,26.5,29.42,NE,44,0.0,0.0,84,0.00,,OVC031,0.00,VWS V14.01,2013-03-25 00:57:00,
2013-03-24 21:02:00,30.6,26.6,29.42,NE,41,0.0,0.0,85,0.00,,OVC031,0.00,VWS V14.01,2013-03-25 01:02:00,
2013-03-24 21:12:00,30.4,26.7,29.42,NE,40,0.0,0.0,86,0.00,,OVC031,0.00,VWS V14.01,2013-03-25 01:12:00,
2013-03-24 21:17:00,30.4,27.0,29.42,NE,35,0.0,0.0,87,0.00,,OVC031,0.00,VWS V14.01,2013-03-25 01:17:00,
2013-03-24 21:22:00,30.4,27.0,29.42,NE,51,0.0,0.0,87,0.00,,OVC031,0.00,VWS V14.01,2013-03-25 01:22:00,
2013-03-24 21:27:00,30.4,27.3,29.42,NNE,32,0.0,0.0,88,0.00,,OVC031,0.00,VWS V14.01,2013-03-25 01:27:00,
2013-03-24 21:37:00,30.4,27.5,29.42,NE,54,0.0,0.0,89,0.00,,OVC031,0.00,VWS V14.01,2013-03-25 01:37:00,
2013-03-24 21:42:00,30.4,27.5,29.42,NNE,27,0.0,0.0,89,0.00,,OVC030,0.00,VWS V14.01,2013-03-25 01:42:00,
2013-03-24 21:52:00,30.6,28.0,29.42,NE,44,0.0,0.0,90,0.00,,OVC030,0.00,VWS V14.01,2013-03-25 01:52:00,
2013-03-24 21:57:00,30.6,28.0,29.42,NE,44,0.0,0.0,90,0.00,,OVC030,0.00,VWS V14.01,2013-03-25 01:57:00,
2013-03-24 22:02:00,30.6,28.0,29.42,NE,42,0.0,0.0,90,0.00,,OVC030,0.00,VWS V14.01,2013-03-25 02:02:00,
2013-03-24 22:07:00,30.6,28.3,29.42,NE,56,0.0,0.0,91,0.00,,OVC030,0.00,VWS V14.01,2013-03-25 02:07:00,
2013-03-24 22:12:00,30.6,28.3,29.42,NE,44,0.0,0.0,91,0.00,,OVC030,0.00,VWS V14.01,2013-03-25 02:12:00,
2013-03-24 22:22:00,30.3,28.0,29.42,ENE,61,0.0,0.0,91,0.00,,OVC030,0.00,VWS V14.01,2013-03-25 02:22:00,
2013-03-24 22:32:00,30.0,27.7,29.42,ENE,64,0.0,0.0,91,0.00,,OVC030,0.00,VWS V14.01,2013-03-25 02:32:00,
2013-03-24 22:42:00,29.8,27.8,29.42,NE,51,0.0,0.0,92,0.00,,OVC075,0.00,VWS V14.01,2013-03-25 02:42:00,
2013-03-24 22:47:00,29.5,27.5,29.43,NE,49,0.0,0.0,92,0.00,,OVC075,0.00,VWS V14.01,2013-03-25 02:47:00,
2013-03-24 22:57:00,29.0,27.0,29.43,NE,54,0.0,0.0,92,0.00,,OVC075,0.00,VWS V14.01,2013-03-25 02:57:00,
2013-03-24 23:02:00,28.7,26.7,29.43,NE,49,0.0,0.0,92,0.00,,OVC075,0.00,VWS V14.01,2013-03-25 03:02:00,
2013-03-24 23:12:00,28.5,26.5,29.43,NE,44,0.0,0.0,92,0.00,,OVC075,0.00,VWS V14.01,2013-03-25 03:12:00,
2013-03-24 23:17:00,28.4,26.4,29.42,NE,48,0.0,0.0,92,0.00,,OVC075,0.00,VWS V14.01,2013-03-25 03:17:00,
2013-03-24 23:22:00,28.4,26.4,29.42,NE,49,0.0,0.0,92,0.00,,OVC075,0.00,VWS V14.01,2013-03-25 03:22:00,
2013-03-24 23:27:00,28.4,26.6,29.42,NE,54,0.0,0.0,93,0.00,,OVC075,0.00,VWS V14.01,2013-03-25 03:27:00,
2013-03-24 23:32:00,28.2,26.4,29.43,NE,44,0.0,0.0,93,0.00,,OVC075,0.00,VWS V14.01,2013-03-25 03:32:00,
2013-03-24 23:37:00,28.2,26.4,29.43,NE,56,0.0,0.0,93,0.00,,OVC075,0.00,VWS V14.01,2013-03-25 03:37:00,
2013-03-24 23:42:00,28.4,26.6,29.43,NE,51,0.0,0.0,93,0.00,,OVC060,0.00,VWS V14.01,2013-03-25 03:42:00,
2013-03-24 23:47:00,28.4,26.6,29.43,NE,35,0.0,0.0,93,0.00,,OVC060,0.00,VWS V14.01,2013-03-25 03:47:00,
2013-03-24 23:52:00,28.4,26.6,29.43,NE,40,0.0,0.0,93,0.00,,OVC060,0.00,VWS V14.01,2013-03-25 03:52:00,
2013-03-24 23:57:00,28.4,26.6,29.43,NE,45,0.0,0.0,93,0.00,,OVC060,0.00,VWS V14.01,2013-03-25 03:57:00,